N7MLR Weather Reports


Display with metric or nautical units.
time (UTC)temp
F
wind
direction
speed
MPH
gust
MPH
rain 1hr
in
rain 24hr
in
rain mn
in
humidity
%
barometer
mb
20260906084946 76 202 0.0 0.0 0.00 0.00 0.00 85 1012.4
20260906084441 76 202 0.0 0.0 0.00 0.00 0.00 84 1012.4
20260906083940 76 202 0.0 0.0 0.00 0.00 0.00 83 1012.4
20260906083436 77 201 0.0 0.0 0.00 0.00 0.00 83 1012.5
20260906082935 78 202 0.0 0.0 0.00 0.00 0.00 82 1012.5
20260906082430 78 202 0.0 0.0 0.00 0.00 0.00 80 1012.6
20260906081926 79 200 0.0 0.0 0.00 0.00 0.00 79 1012.7
20260906081421 79 202 0.0 1.0 0.00 0.00 0.00 79 1012.7
20260906080917 80 206 0.0 0.0 0.00 0.00 0.00 78 1012.7
20260906080414 80 210 0.0 1.0 0.00 0.00 0.00 78 1012.8
20260906075912 80 204 0.0 1.0 0.00 0.00 0.00 78 1012.8
20260906075408 80 204 0.0 1.0 0.00 0.00 0.00 77 1012.8
20260906074903 80 221 0.0 1.0 0.00 0.00 0.00 77 1013.0
20260906074403 78 198 1.0 1.0 0.00 0.00 0.00 81 1013.3
20260906073901 78 200 0.0 0.0 0.00 0.00 0.00 82 1013.0
20260906073356 78 200 0.0 0.0 0.00 0.00 0.00 82 1013.2
20260906072853 78 200 0.0 0.0 0.00 0.00 0.00 81 1013.1
20260906072348 78 200 0.0 0.0 0.00 0.00 0.00 80 1013.5
20260906071844 78 200 0.0 0.0 0.00 0.00 0.00 79 1013.3
20260906071339 79 200 0.0 0.0 0.00 0.00 0.00 78 1013.2
20260906070836 80 200 0.0 1.0 0.00 0.00 0.00 77 1013.3
20260906070331 81 200 0.0 1.0 0.00 0.00 0.00 75 1013.3
20260906065826 81 202 0.0 1.0 0.00 0.00 0.00 75 1013.5
20260906065321 81 204 0.0 1.0 0.00 0.00 0.00 74 1013.4
20260906064817 81 205 0.0 0.0 0.00 0.00 0.00 74 1013.6
20260906064313 81 204 0.0 1.0 0.00 0.00 0.00 73 1013.6
20260906063807 82 211 1.0 2.0 0.00 0.00 0.00 73 1013.7
20260906063303 82 214 1.0 1.0 0.00 0.00 0.00 72 1013.6
20260906062758 81 209 0.0 1.0 0.00 0.00 0.00 73 1013.6
20260906062256 79 204 0.0 0.0 0.00 0.00 0.00 76 1013.7
20260906061752 79 211 0.0 0.0 0.00 0.00 0.00 76 1013.3
20260906061249 80 215 0.0 0.0 0.00 0.00 0.00 76 1013.8
20260906060743 80 215 0.0 0.0 0.00 0.00 0.00 75 1013.7
20260906060241 81 217 0.0 0.0 0.00 0.00 0.00 74 1013.6
20260906055736 82 202 0.0 0.0 0.00 0.00 0.00 73 1013.8
20260906055232 82 203 0.0 1.0 0.00 0.00 0.00 71 1013.8
20260906054727 82 200 1.0 1.0 0.00 0.00 0.00 71 1014.0
20260906054222 83 200 0.0 1.0 0.00 0.00 0.00 70 1013.6
20260906053719 83 202 1.0 1.0 0.00 0.00 0.00 70 1014.0
20260906053214 84 210 0.0 1.0 0.00 0.00 0.00 69 1013.6
20260906052709 84 208 0.0 1.0 0.00 0.00 0.00 69 1013.8
20260906052205 84 211 0.0 0.0 0.00 0.00 0.00 69 1013.6
20260906051702 84 208 0.0 1.0 0.00 0.00 0.00 69 1013.7
20260906051201 84 202 1.0 2.0 0.00 0.00 0.00 69 1014.0
20260906050657 84 187 1.0 2.0 0.00 0.00 0.00 69 1013.7
20260906050152 84 231 0.0 1.0 0.00 0.00 0.00 69 1013.7
20260906045650 84 196 1.0 2.0 0.00 0.00 0.00 69 1014.2
20260906045145 85 19 2.0 3.0 0.00 0.00 0.00 69 1013.8
20260906044641 85 215 1.0 1.0 0.00 0.00 0.00 69 1013.7
20260906044136 85 202 0.0 1.0 0.00 0.00 0.00 68 1013.5
20260906043633 85 210 1.0 2.0 0.00 0.00 0.00 68 1013.8
20260906043128 85 221 0.0 1.0 0.00 0.00 0.00 68 1013.8
20260906042627 86 211 0.0 1.0 0.00 0.00 0.00 67 1014.0
20260906042121 86 216 1.0 1.0 0.00 0.00 0.00 67 1014.0
20260906041618 85 223 2.0 3.0 0.00 0.00 0.00 68 1013.8
20260906041112 86 222 1.0 1.0 0.00 0.00 0.00 67 1013.6
20260906040608 86 192 1.0 2.0 0.00 0.00 0.00 66 1013.6
20260906035558 86 223 0.0 1.0 0.00 0.00 0.00 66 1013.2
20260906035054 86 295 1.0 2.0 0.00 0.00 0.00 67 1013.5
20260906034548 86 285 1.0 1.0 0.00 0.00 0.00 66 1013.4
20260906034043 86 222 1.0 2.0 0.00 0.00 0.00 65 1013.5
20260906033538 87 207 2.0 3.0 0.00 0.00 0.00 64 1013.3
20260906033034 87 209 0.0 1.0 0.00 0.00 0.00 64 1013.2
20260906032530 87 215 0.0 1.0 0.00 0.00 0.00 63 1013.0
20260906032025 87 257 2.0 3.0 0.00 0.00 0.00 63 1013.2
20260906031520 87 205 2.0 2.0 0.00 0.00 0.00 62 1013.0
20260906031016 87 203 1.0 1.0 0.00 0.00 0.00 61 1012.9
20260906030515 86 217 1.0 1.0 0.00 0.00 0.00 61 1012.8
20260906030015 87 205 1.0 1.0 0.00 0.00 0.00 60 1012.8
20260906025514 87 217 0.0 1.0 0.00 0.00 0.00 59 1012.4
20260906025012 88 210 1.0 1.0 0.00 0.00 0.00 59 1012.4
20260906024508 88 222 0.0 1.0 0.00 0.00 0.00 58 1012.2
20260906024002 88 218 1.0 1.0 0.00 0.00 0.00 58 1012.2
20260906023458 87 216 0.0 1.0 0.00 0.00 0.00 58 1011.7
20260906022953 88 205 0.0 1.0 0.00 0.00 0.00 57 1012.0
20260906022448 88 255 1.0 3.0 0.00 0.00 0.00 57 1012.0
20260906021943 87 217 1.0 1.0 0.00 0.00 0.00 57 1011.6
20260906021438 88 225 1.0 1.0 0.00 0.00 0.00 57 1011.7
20260906020933 87 211 2.0 2.0 0.00 0.00 0.00 57 1011.5
20260906020427 87 222 0.0 1.0 0.00 0.00 0.00 57 1011.5
20260906015927 87 238 1.0 2.0 0.00 0.00 0.00 57 1011.3
20260906015421 87 218 2.0 2.0 0.00 0.00 0.00 56 1011.5
20260906014921 85 221 3.0 5.0 0.00 0.00 0.00 57 1011.3
20260906014420 85 202 0.0 0.0 0.00 0.00 0.00 58 1011.4
20260906013917 86 202 0.0 0.0 0.00 0.00 0.00 57 1011.1
20260906013412 87 201 0.0 0.0 0.00 0.00 0.00 58 1011.3
20260906012908 88 201 0.0 0.0 0.00 0.00 0.00 54 1011.1
20260906012402 88 202 1.0 1.0 0.00 0.00 0.00 54 1010.8
20260906011901 89 203 0.0 1.0 0.00 0.00 0.00 52 1011.2
20260906011356 89 202 0.0 1.0 0.00 0.00 0.00 51 1011.1
20260906010852 90 202 1.0 1.0 0.00 0.00 0.00 50 1011.3
20260906010348 90 213 0.0 1.0 0.00 0.00 0.00 50 1010.8
20260906005844 91 215 0.0 1.0 0.00 0.00 0.00 49 1010.8
20260906005343 91 212 1.0 1.0 0.00 0.00 0.00 48 1010.9
20260906004841 91 205 0.0 1.0 0.00 0.00 0.00 47 1010.7
20260906004336 92 212 1.0 1.0 0.00 0.00 0.00 46 1010.8
20260906003831 92 263 1.0 1.0 0.00 0.00 0.00 45 1010.9
20260906003327 92 212 1.0 1.0 0.00 0.00 0.00 44 1010.8
20260906002822 93 224 0.0 1.0 0.00 0.00 0.00 44 1010.8
20260906002321 93 220 1.0 1.0 0.00 0.00 0.00 43 1010.7
20260906001818 94 311 0.0 2.0 0.00 0.00 0.00 42 1010.9
20260906001312 94 205 0.0 1.0 0.00 0.00 0.00 41 1010.8
20260906000807 94 215 1.0 1.0 0.00 0.00 0.00 41 1010.7
20260906000303 94 216 1.0 2.0 0.00 0.00 0.00 41 1010.6
20260905235757 94 226 3.0 3.0 0.00 0.00 0.00 40 1010.9
20260905235256 94 213 1.0 1.0 0.00 0.00 0.00 40 1010.7
20260905234752 95 212 1.0 1.0 0.00 0.00 0.00 39 1010.9
20260905234247 95 205 1.0 1.0 0.00 0.00 0.00 39 1010.9
20260905233743 95 281 2.0 2.0 0.00 0.00 0.00 40 1010.7
20260905233242 95 206 1.0 1.0 0.00 0.00 0.00 40 1010.8
20260905232742 95 224 0.0 1.0 0.00 0.00 0.00 41 1010.8
20260905232238 95 227 1.0 2.0 0.00 0.00 0.00 41 1010.8
20260905231734 95 234 1.0 2.0 0.00 0.00 0.00 41 1010.7
20260905231229 96 216 1.0 1.0 0.00 0.00 0.00 42 1010.6
20260905230725 96 184 1.0 2.0 0.00 0.00 0.00 41 1011.1
20260905230222 95 210 1.0 1.0 0.00 0.00 0.00 41 1010.9
20260905225722 96 220 0.0 0.0 0.00 0.00 0.00 42 1010.7
20260905225217 96 220 0.0 1.0 0.00 0.00 0.00 40 1010.7
20260905224716 97 241 2.0 2.0 0.00 0.00 0.00 40 1010.9
20260905224212 96 227 2.0 2.0 0.00 0.00 0.00 39 1010.8
20260905223708 95 231 3.0 5.0 0.00 0.00 0.00 41 1010.9
20260905223205 96 234 2.0 3.0 0.00 0.00 0.00 41 1011.1
20260905222700 96 213 1.0 2.0 0.00 0.00 0.00 42 1010.8
20260905222159 96 231 1.0 1.0 0.00 0.00 0.00 43 1010.9
20260905221655 97 204 0.0 1.0 0.00 0.00 0.00 41 1010.7
20260905221152 96 223 3.0 3.0 0.00 0.00 0.00 43 1010.9
20260905220647 95 219 2.0 2.0 0.00 0.00 0.00 43 1011.3
20260905220143 96 220 3.0 5.0 0.00 0.00 0.00 43 1011.1
20260905215643 96 269 2.0 2.0 0.00 0.00 0.00 44 1011.2
20260905215138 96 208 1.0 2.0 0.00 0.00 0.00 43 1011.1
20260905214634 96 232 2.0 2.0 0.00 0.00 0.00 43 1011.1
20260905214129 97 202 4.0 6.0 0.00 0.00 0.00 42 1010.9
20260905213624 97 191 2.0 2.0 0.00 0.00 0.00 42 1011.1
20260905213120 96 218 1.0 2.0 0.00 0.00 0.00 42 1011.2
20260905212615 97 151 3.0 3.0 0.00 0.00 0.00 42 1011.3
20260905212114 97 205 0.0 1.0 0.00 0.00 0.00 43 1011.1
20260905211610 98 204 1.0 2.0 0.00 0.00 0.00 41 1011.3
20260905211105 97 192 1.0 2.0 0.00 0.00 0.00 43 1011.1
20260905210601 97 208 3.0 3.0 0.00 0.00 0.00 43 1011.3
20260905210056 98 245 1.0 1.0 0.00 0.00 0.00 43 1011.4
20260905205555 98 195 1.0 2.0 0.00 0.00 0.00 42 1011.5
20260905205055 97 186 1.0 1.0 0.00 0.00 0.00 44 1011.4
20260905204549 99 202 3.0 3.0 0.00 0.00 0.00 42 1011.6
20260905204045 98 227 2.0 2.0 0.00 0.00 0.00 44 1011.8
20260905203544 98 286 4.0 6.0 0.00 0.00 0.00 43 1011.8
20260905203040 97 195 1.0 2.0 0.00 0.00 0.00 44 1011.8
20260905202535 98 233 2.0 3.0 0.00 0.00 0.00 44 1011.9
20260905202031 96 182 2.0 3.0 0.00 0.00 0.00 45 1012.0
20260905201526 97 202 1.0 2.0 0.00 0.00 0.00 45 1012.4
20260905201025 97 215 1.0 2.0 0.00 0.00 0.00 46 1012.3
20260905200521 96 260 2.0 5.0 0.00 0.00 0.00 46 1012.2
20260905200020 96 212 1.0 2.0 0.00 0.00 0.00 47 1012.4
20260905195514 96 211 1.0 1.0 0.00 0.00 0.00 48 1012.4
20260905195010 96 196 3.0 6.0 0.00 0.00 0.00 49 1012.5
20260905194504 96 239 2.0 2.0 0.00 0.00 0.00 48 1012.5
20260905194003 97 222 1.0 2.0 0.00 0.00 0.00 48 1012.6
20260905193458 96 230 1.0 2.0 0.00 0.00 0.00 48 1012.6
20260905192953 95 192 0.0 1.0 0.00 0.00 0.00 47 1012.6
20260905192449 94 202 0.0 1.0 0.00 0.00 0.00 49 1012.8
20260905191944 93 215 1.0 1.0 0.00 0.00 0.00 51 1013.0
20260905191438 96 187 2.0 2.0 0.00 0.00 0.00 49 1013.0
20260905190937 97 174 2.0 2.0 0.00 0.00 0.00 47 1013.2
20260905190435 97 158 1.0 2.0 0.00 0.00 0.00 47 1013.3
20260905185934 98 186 1.0 1.0 0.00 0.00 0.00 46 1013.6
20260905185429 96 210 1.0 1.0 0.00 0.00 0.00 46 1013.4
20260905184928 96 188 3.0 3.0 0.00 0.00 0.00 46 1013.6
20260905184423 94 211 1.0 1.0 0.00 0.00 0.00 50 1013.8
20260905183921 96 177 3.0 3.0 0.00 0.00 0.00 47 1013.8
20260905183416 96 207 1.0 2.0 0.00 0.00 0.00 45 1013.8
20260905182912 94 203 1.0 1.0 0.00 0.00 0.00 49 1013.8
20260905182411 97 154 2.0 2.0 0.00 0.00 0.00 45 1014.1
20260905181907 96 259 2.0 3.0 0.00 0.00 0.00 46 1014.0
20260905181407 95 195 0.0 1.0 0.00 0.00 0.00 45 1014.1
20260905180905 96 217 2.0 2.0 0.00 0.00 0.00 51 1014.3
20260905180401 94 198 1.0 2.0 0.00 0.00 0.00 47 1014.4
20260905175856 94 193 0.0 1.0 0.00 0.00 0.00 50 1014.6
20260905175355 96 189 1.0 2.0 0.00 0.00 0.00 50 1014.5
20260905174850 93 194 1.0 1.0 0.00 0.00 0.00 51 1014.5
20260905174346 92 198 2.0 2.0 0.00 0.00 0.00 54 1014.8
20260905173842 93 194 1.0 1.0 0.00 0.00 0.00 54 1014.7
20260905173337 94 239 1.0 2.0 0.00 0.00 0.00 55 1014.9
20260905172832 94 302 2.0 3.0 0.00 0.00 0.00 51 1014.9
20260905172330 93 137 3.0 3.0 0.00 0.00 0.00 57 1014.9
20260905171826 95 113 3.0 3.0 0.00 0.00 0.00 56 1014.9
20260905171323 94 239 2.0 2.0 0.00 0.00 0.00 54 1014.8
20260905170819 92 193 0.0 1.0 0.00 0.00 0.00 60 1015.1
20260905170315 91 180 1.0 1.0 0.00 0.00 0.00 58 1015.1
20260905165814 91 215 1.0 1.0 0.00 0.00 0.00 59 1015.2
20260905165310 92 235 1.0 2.0 0.00 0.00 0.00 59 1015.0
20260905164810 91 208 1.0 1.0 0.00 0.00 0.00 61 1015.4
20260905164310 89 157 2.0 2.0 0.00 0.00 0.00 63 1015.2
20260905163805 88 214 1.0 2.0 0.00 0.00 0.00 64 1015.0
20260905163302 87 202 1.0 2.0 0.00 0.00 0.00 65 1015.0
20260905162757 86 192 1.0 1.0 0.00 0.00 0.00 66 1015.0
20260905162257 86 138 2.0 2.0 0.00 0.00 0.00 69 1015.0
20260905161751 87 192 1.0 2.0 0.00 0.00 0.00 68 1015.1
20260905161250 88 190 1.0 2.0 0.00 0.00 0.00 67 1015.2
20260905160749 88 200 2.0 3.0 0.00 0.00 0.00 67 1015.3
20260905160243 87 192 3.0 3.0 0.00 0.00 0.00 68 1015.3
20260905155738 85 204 0.0 0.0 0.00 0.00 0.00 72 1015.2
20260905155237 86 190 2.0 2.0 0.00 0.00 0.00 71 1015.2
20260905154731 86 193 1.0 1.0 0.00 0.00 0.00 71 1015.2
20260905154227 86 202 1.0 1.0 0.00 0.00 0.00 72 1015.1
20260905153722 84 202 1.0 1.0 0.00 0.00 0.00 75 1015.0
20260905153219 83 195 1.0 1.0 0.00 0.00 0.00 77 1015.3
20260905152713 82 192 1.0 2.0 0.00 0.00 0.00 79 1015.1
20260905152207 82 194 0.0 1.0 0.00 0.00 0.00 80 1014.9
20260905151707 82 200 0.0 1.0 0.00 0.00 0.00 81 1015.0
20260905151203 82 204 1.0 1.0 0.00 0.00 0.00 81 1015.0
20260905150658 83 196 1.0 1.0 0.00 0.00 0.00 80 1014.9
20260905150156 82 196 1.0 1.0 0.00 0.00 0.00 82 1015.1
20260905145654 83 220 2.0 2.0 0.00 0.00 0.00 82 1015.0
20260905145149 82 177 2.0 2.0 0.00 0.00 0.00 82 1015.0
20260905144643 82 190 1.0 1.0 0.00 0.00 0.00 82 1015.0
20260905144143 84 195 1.0 2.0 0.00 0.00 0.00 80 1015.0
20260905143637 83 198 0.0 0.0 0.00 0.00 0.00 81 1015.0
20260905143132 82 137 2.0 2.0 0.00 0.00 0.00 83 1015.1
20260905142630 82 209 1.0 1.0 0.00 0.00 0.00 86 1015.0
20260905142125 80 195 0.0 0.0 0.00 0.00 0.00 88 1014.9
20260905141625 81 205 0.0 0.0 0.00 0.00 0.00 87 1014.9
20260905141121 80 215 0.0 1.0 0.00 0.00 0.00 89 1014.9
20260905140616 80 208 0.0 1.0 0.00 0.00 0.00 90 1015.0
20260905140115 79 237 0.0 0.0 0.00 0.00 0.00 91 1014.8
20260905135611 79 219 0.0 0.0 0.00 0.00 0.00 92 1014.8
20260905135106 79 222 0.0 1.0 0.00 0.00 0.00 91 1014.9
20260905134601 79 204 0.0 0.0 0.00 0.00 0.00 92 1014.9
20260905134059 78 213 0.0 1.0 0.00 0.00 0.00 92 1014.7
20260905133555 78 209 0.0 1.0 0.00 0.00 0.00 93 1014.6
20260905133055 77 205 0.0 0.0 0.00 0.00 0.00 94 1014.6
20260905132554 76 202 0.0 1.0 0.00 0.00 0.00 94 1014.7
20260905132049 75 200 1.0 1.0 0.00 0.00 0.00 95 1014.6
20260905131545 75 202 0.0 0.0 0.00 0.00 0.00 96 1014.6
20260905131040 74 202 0.0 0.0 0.00 0.00 0.00 96 1014.6
20260905130539 74 201 0.0 0.0 0.00 0.00 0.00 96 1014.4
20260905130034 73 201 0.0 0.0 0.00 0.00 0.00 96 1014.3
20260905125533 72 201 0.0 0.0 0.00 0.00 0.00 96 1014.3
20260905125029 72 201 0.0 0.0 0.00 0.00 0.00 96 1014.1
20260905124526 72 201 0.0 0.0 0.00 0.00 0.00 96 1014.1
20260905124021 72 202 0.0 0.0 0.00 0.00 0.00 96 1014.0
20260905123517 72 201 0.0 0.0 0.00 0.00 0.00 96 1014.2
20260905123014 72 200 0.0 0.0 0.00 0.00 0.00 96 1013.8
20260905122507 72 198 0.0 0.0 0.00 0.00 0.00 95 1014.0
20260905122002 72 198 0.0 0.0 0.00 0.00 0.00 95 1014.1
20260905121457 72 193 0.0 0.0 0.00 0.00 0.00 95 1014.0
20260905120956 72 198 0.0 0.0 0.00 0.00 0.00 95 1013.7
20260905120451 72 198 0.0 0.0 0.00 0.00 0.00 94 1013.8
20260905115946 73 193 0.0 0.0 0.00 0.00 0.00 94 1013.7
20260905115445 73 200 0.0 1.0 0.00 0.00 0.00 94 1013.7
20260905114940 73 204 0.0 0.0 0.00 0.00 0.00 95 1013.6
20260905114440 73 198 0.0 1.0 0.00 0.00 0.00 95 1014.1
20260905113939 73 198 1.0 1.0 0.00 0.00 0.00 96 1013.5
20260905113434 73 200 1.0 1.0 0.00 0.00 0.00 96 1014.0
20260905112929 72 200 0.0 1.0 0.00 0.00 0.00 96 1013.6
20260905112425 72 200 0.0 0.0 0.00 0.00 0.00 96 1013.7
20260905111919 72 200 0.0 0.0 0.00 0.00 0.00 96 1013.5
20260905111414 72 200 0.0 0.0 0.00 0.00 0.00 96 1013.8
20260905110914 72 200 0.0 0.0 0.00 0.00 0.00 95 1014.0
20260905110408 72 200 0.0 0.0 0.00 0.00 0.00 95 1014.0
20260905105903 72 200 0.0 0.0 0.00 0.00 0.00 95 1013.6
20260905105357 72 200 0.0 0.0 0.00 0.00 0.00 95 1013.5
20260905104856 73 200 0.0 0.0 0.00 0.00 0.00 95 1013.6
20260905104353 73 201 0.0 0.0 0.00 0.00 0.00 94 1013.5
20260905103853 73 201 0.0 0.0 0.00 0.00 0.00 94 1013.5
20260905103348 73 201 0.0 0.0 0.00 0.00 0.00 94 1013.4
20260905102844 73 201 0.0 0.0 0.00 0.00 0.00 93 1013.3
20260905102341 74 201 0.0 0.0 0.00 0.00 0.00 93 1013.5
20260905101840 74 198 0.0 1.0 0.00 0.00 0.00 93 1013.4
20260905101339 74 200 0.0 0.0 0.00 0.00 0.00 93 1013.5
20260905100833 74 193 0.0 0.0 0.00 0.00 0.00 93 1013.5
20260905100330 74 200 0.0 1.0 0.00 0.00 0.00 94 1013.5
20260905095829 74 200 0.0 1.0 0.00 0.00 0.00 94 1013.4
20260905095323 73 202 0.0 1.0 0.00 0.00 0.00 95 1013.2
20260905094817 73 202 0.0 0.0 0.00 0.00 0.00 94 1013.3
20260905094314 73 202 0.0 0.0 0.00 0.00 0.00 94 1013.6
20260905093812 74 202 0.0 0.0 0.00 0.00 0.00 94 1013.3
20260905093308 74 202 0.0 0.0 0.00 0.00 0.00 93 1013.4
20260905092804 74 202 0.0 0.0 0.00 0.00 0.00 93 1013.4
20260905092258 75 202 0.0 0.0 0.00 0.00 0.00 93 1013.4
20260905091758 75 202 0.0 0.0 0.00 0.00 0.00 92 1013.5
20260905091253 75 202 0.0 0.0 0.00 0.00 0.00 92 1013.4
20260905090752 75 202 0.0 0.0 0.00 0.00 0.00 91 1013.4
20260905090248 76 202 0.0 0.0 0.00 0.00 0.00 90 1013.5
20260905085747 76 202 0.0 0.0 0.00 0.00 0.00 90 1013.5